Вернуться в каталог

SL-8 R/B

АктивенPO
NORAD 23180·ROCKET BODY·🇷🇺 Russia

Запущен Jul 14, 1994 с Plesetsk Cosmodrome

Loading…

Ближайшие Пролёты (ближайшие 24 часа)

TLE

СвежийSource: Space-Track

Эпоха: Sep 14, 2026, 14:26 UTC

1 23180U 94041B   26257.60195057  .00000016  00000-0  38511-6 0  9998
2 23180  82.9449 298.1249 0030078 114.9749  49.2034 13.78308681617528

Отслеживайте SL-8 R/B в реальном времени с AllMySat

Download on the App Store